"read_dt","SO2 (ppb)","flags","PMT voltage (V)","lamp voltage (V)","lamp intensity (Hz)","internal temp (C)","react chamber temp (C)","sample flow (l/min)","pres (mmHg)","SO2 bkg (ppb)","SO2 coefficient"
2015-01-25 00:00:00,2175E-3,5C000000,-0724,0836,12146,027.4,045.4,0.451,735.5,01.18,0.508
2015-01-25 00:01:00,2098E-3,5C000000,-0724,0836,12052,027.4,045.4,0.452,735.5,01.18,0.508
2015-01-25 00:02:00,2164E-3,5C000000,-0724,0836,12197,027.4,045.4,0.451,735.5,01.18,0.508
2015-01-25 00:03:00,2216E-3,5C000000,-0724,0836,12112,027.4,045.4,0.451,735.5,01.18,0.508
2015-01-25 00:04:00,2053E-3,5C000000,-0724,0835,12153,027.4,045.4,0.452,735.5,01.18,0.508
2015-01-25 00:05:00,2208E-3,5C000000,-0724,0835,12113,027.4,045.4,0.452,735.5,01.18,0.508
2015-01-25 00:06:00,2094E-3,5C000000,-0724,0836,12319,027.4,045.4,0.451,735.5,01.18,0.508
2015-01-25 00:07:00,2056E-3,5C000000,-0724,0835,12057,027.4,045.4,0.451,735.5,01.18,0.508
2015-01-25 00:08:00,2057E-3,5C000000,-0724,0836,12268,027.4,045.4,0.451,735.4,01.18,0.508
2015-01-25 00:09:00,2039E-3,5C000000,-0724,0836,12249,027.4,045.4,0.452,735.4,01.18,0.508
2015-01-25 00:10:00,2147E-3,5C000000,-0724,0837,12129,027.4,045.4,0.451,735.5,01.18,0.508
2015-01-25 00:11:00,2314E-3,5C000000,-0724,0835,12151,027.4,045.4,0.451,735.5,01.18,0.508
2015-01-25 00:12:00,2155E-3,5C000000,-0724,0835,12292,027.4,045.4,0.451,735.5,01.18,0.508
2015-01-25 00:13:00,2091E-3,5C000000,-0724,0836,12199,027.4,045.4,0.452,735.5,01.18,0.508
2015-01-25 00:14:00,2151E-3,5C000000,-0724,0836,12057,027.4,045.4,0.451,735.5,01.18,0.508
2015-01-25 00:15:00,2193E-3,5C000000,-0724,0837,12280,027.4,045.4,0.451,735.5,01.18,0.508
2015-01-25 00:16:00,2188E-3,5C000000,-0724,0836,12108,027.4,045.4,0.451,735.5,01.18,0.508
2015-01-25 00:17:00,2240E-3,5C000000,-0724,0835,12307,027.4,045.4,0.452,735.5,01.18,0.508
2015-01-25 00:18:00,2131E-3,5C000000,-0724,0835,12087,027.4,045.4,0.451,735.4,01.18,0.508
2015-01-25 00:19:00,2011E-3,5C000000,-0724,0835,12121,027.4,045.4,0.451,735.3,01.18,0.508
2015-01-25 00:20:00,2309E-3,5C000000,-0724,0834,12357,027.4,045.4,0.451,735.4,01.18,0.508
2015-01-25 00:21:00,2130E-3,5C000000,-0724,0835,12241,027.4,045.4,0.451,735.3,01.18,0.508
2015-01-25 00:22:00,2000E-3,5C000000,-0724,0836,12212,027.4,045.4,0.451,735.2,01.18,0.508
2015-01-25 00:23:00,2125E-3,5C000000,-0724,0835,11965,027.4,045.4,0.451,735.3,01.18,0.508
2015-01-25 00:24:00,1984E-3,5C000000,-0724,0834,12086,027.4,045.4,0.451,735.2,01.18,0.508
2015-01-25 00:25:00,2146E-3,5C000000,-0724,0837,12280,027.4,045.4,0.451,735.3,01.18,0.508
2015-01-25 00:26:00,2100E-3,5C000000,-0724,0835,12160,027.4,045.4,0.451,735.3,01.18,0.508
2015-01-25 00:27:00,2124E-3,5C000000,-0724,0836,12297,027.4,045.4,0.451,735.4,01.18,0.508
2015-01-25 00:28:00,2186E-3,5C000000,-0724,0836,12108,027.4,045.4,0.451,735.2,01.18,0.508
2015-01-25 00:29:00,2062E-3,5C000000,-0724,0834,12162,027.4,045.4,0.451,735.2,01.18,0.508
2015-01-25 00:30:00,2147E-3,5C000000,-0724,0836,11972,027.4,045.4,0.451,735.1,01.18,0.508
2015-01-25 00:31:00,2044E-3,5C000000,-0724,0836,12170,027.4,045.4,0.451,735.0,01.18,0.508
2015-01-25 00:32:00,2154E-3,5C000000,-0724,0836,12222,027.4,045.4,0.451,735.0,01.18,0.508
2015-01-25 00:33:00,2078E-3,5C000000,-0724,0835,11989,027.4,045.4,0.451,735.1,01.18,0.508
2015-01-25 00:34:00,1979E-3,5C000000,-0724,0836,12168,027.4,045.4,0.451,735.0,01.18,0.508
2015-01-25 00:35:00,2142E-3,5C000000,-0724,0836,12093,027.4,045.4,0.451,735.1,01.18,0.508
2015-01-25 00:36:00,2126E-3,5C000000,-0724,0836,12225,027.4,045.4,0.451,734.8,01.18,0.508
2015-01-25 00:37:00,2134E-3,5C000000,-0724,0835,12202,027.4,045.4,0.451,735.1,01.18,0.508
2015-01-25 00:38:00,2189E-3,5C000000,-0724,0836,12092,027.4,045.4,0.451,734.9,01.18,0.508
2015-01-25 00:39:00,2201E-3,5C000000,-0724,0837,12182,027.3,045.4,0.451,734.8,01.18,0.508
2015-01-25 00:40:00,2096E-3,5C000000,-0724,0835,12273,027.3,045.4,0.451,734.8,01.18,0.508
2015-01-25 00:41:00,2089E-3,5C000000,-0724,0835,12183,027.3,045.4,0.451,734.8,01.18,0.508
2015-01-25 00:42:00,2094E-3,5C000000,-0724,0837,12183,027.3,045.4,0.451,734.9,01.18,0.508
2015-01-25 00:43:00,2061E-3,5C000000,-0724,0836,12304,027.3,045.4,0.451,734.9,01.18,0.508
2015-01-25 00:44:00,2120E-3,5C000000,-0724,0836,12201,027.3,045.4,0.451,734.7,01.18,0.508
2015-01-25 00:45:00,2198E-3,5C000000,-0724,0836,12281,027.3,045.4,0.451,734.5,01.18,0.508
2015-01-25 00:46:00,2133E-3,5C000000,-0724,0836,12221,027.3,045.4,0.451,734.7,01.18,0.508
2015-01-25 00:47:00,2201E-3,5C000000,-0724,0835,12290,027.3,045.4,0.451,734.6,01.18,0.508
2015-01-25 00:48:00,2017E-3,5C000000,-0724,0836,12128,027.3,045.4,0.451,734.6,01.18,0.508
2015-01-25 00:49:00,2107E-3,5C000000,-0724,0836,12193,027.3,045.4,0.451,734.7,01.18,0.508
2015-01-25 00:50:00,2169E-3,5C000000,-0724,0836,12265,027.3,045.4,0.451,734.6,01.18,0.508
2015-01-25 00:51:00,2042E-3,5C000000,-0724,0836,12079,027.2,045.4,0.451,734.7,01.18,0.508
2015-01-25 00:52:00,2217E-3,5C000000,-0724,0835,12047,027.2,045.4,0.451,734.7,01.18,0.508
2015-01-25 00:53:00,2168E-3,5C000000,-0724,0835,12138,027.2,045.4,0.451,734.7,01.18,0.508
2015-01-25 00:54:00,2081E-3,5C000000,-0724,0836,12132,027.2,045.4,0.451,734.5,01.18,0.508
2015-01-25 00:55:00,2058E-3,5C000000,-0724,0835,11957,027.2,045.4,0.451,734.6,01.18,0.508
2015-01-25 00:56:00,2060E-3,5C000000,-0724,0836,12157,027.2,045.4,0.451,734.7,01.18,0.508
2015-01-25 00:57:00,2039E-3,5C000000,-0724,0835,12410,027.1,045.4,0.451,734.7,01.18,0.508
2015-01-25 00:58:00,2148E-3,5C000000,-0724,0834,12023,027.1,045.4,0.451,734.7,01.18,0.508
2015-01-25 00:59:00,2071E-3,5C000000,-0724,0835,12097,027.1,045.4,0.451,734.8,01.18,0.508
2015-01-25 01:00:00,2190E-3,5C000000,-0724,0835,12220,027.1,045.4,0.451,734.6,01.18,0.508
2015-01-25 01:01:00,2134E-3,5C000000,-0724,0836,12060,027.1,045.4,0.451,734.5,01.18,0.508
2015-01-25 01:02:00,2088E-3,5C000000,-0724,0836,12181,027.1,045.4,0.451,734.6,01.18,0.508
2015-01-25 01:03:00,2138E-3,5C000000,-0724,0836,12236,027.1,045.4,0.451,734.5,01.18,0.508
2015-01-25 01:04:00,2056E-3,5C000000,-0724,0836,12077,027.0,045.4,0.451,734.1,01.19,0.508
2015-01-25 01:05:00,2070E-3,5C000000,-0724,0837,12368,027.0,045.4,0.451,734.6,01.18,0.508
2015-01-25 01:06:00,2216E-3,5C000000,-0724,0836,12208,027.0,045.4,0.451,734.3,01.18,0.508
2015-01-25 01:07:00,2145E-3,5C000000,-0724,0836,12089,027.0,045.4,0.451,734.5,01.18,0.508
2015-01-25 01:08:00,2073E-3,5C000000,-0724,0835,12070,027.0,045.4,0.451,734.5,01.18,0.508
2015-01-25 01:09:00,2099E-3,5C000000,-0724,0836,12236,026.9,045.4,0.451,734.5,01.18,0.508
2015-01-25 01:10:00,2143E-3,5C000000,-0724,0834,12125,026.9,045.4,0.451,734.4,01.18,0.508
2015-01-25 01:11:00,1985E-3,5C000000,-0724,0835,12227,026.9,045.4,0.451,734.5,01.18,0.508
2015-01-25 01:12:00,2079E-3,5C000000,-0724,0835,12131,026.9,045.4,0.451,734.1,01.19,0.508
2015-01-25 01:13:00,2132E-3,5C000000,-0724,0836,12196,026.9,045.4,0.451,734.4,01.18,0.508
2015-01-25 01:14:00,2218E-3,5C000000,-0724,0834,11954,026.9,045.4,0.451,734.2,01.18,0.508
2015-01-25 01:15:00,1979E-3,5C000000,-0724,0835,12212,026.8,045.4,0.451,734.5,01.18,0.508
2015-01-25 01:16:00,1971E-3,5C000000,-0724,0835,12088,026.8,045.4,0.451,734.8,01.18,0.508
2015-01-25 01:17:00,2143E-3,5C000000,-0724,0835,12063,026.8,045.4,0.451,734.2,01.18,0.508
2015-01-25 01:18:00,2112E-3,5C000000,-0724,0834,12009,026.8,045.4,0.451,734.5,01.18,0.508
2015-01-25 01:19:00,2251E-3,5C000000,-0724,0835,12182,026.8,045.4,0.451,734.5,01.18,0.508
2015-01-25 01:20:00,2005E-3,5C000000,-0724,0834,12087,026.7,045.4,0.452,734.3,01.18,0.508
2015-01-25 01:21:00,2234E-3,5C000000,-0724,0835,12021,026.7,045.4,0.451,734.7,01.18,0.508
2015-01-25 01:22:00,2154E-3,5C000000,-0724,0834,12200,026.7,045.4,0.451,734.6,01.18,0.508
2015-01-25 01:23:00,2190E-3,5C000000,-0724,0834,12317,026.7,045.4,0.452,734.8,01.18,0.508
2015-01-25 01:24:00,2076E-3,5C000000,-0724,0835,12083,026.7,045.4,0.451,734.7,01.18,0.508
2015-01-25 01:25:00,2125E-3,5C000000,-0724,0834,12086,026.7,045.4,0.451,734.7,01.18,0.508
2015-01-25 01:26:00,2119E-3,5C000000,-0724,0835,12113,026.6,045.4,0.452,734.4,01.18,0.508
2015-01-25 01:27:00,2033E-3,5C000000,-0724,0835,12158,026.6,045.4,0.451,734.4,01.18,0.508
2015-01-25 01:28:00,2158E-3,5C000000,-0724,0834,12271,026.6,045.4,0.452,734.7,01.18,0.508
2015-01-25 01:29:00,2102E-3,5C000000,-0724,0835,12077,026.6,045.4,0.452,734.4,01.18,0.508
2015-01-25 01:30:00,2110E-3,5C000000,-0724,0836,12051,026.5,045.4,0.451,734.2,01.18,0.508
2015-01-25 01:31:00,2071E-3,5C000000,-0724,0837,12148,026.5,045.4,0.452,734.4,01.18,0.508
2015-01-25 01:32:00,2058E-3,5C000000,-0724,0836,12074,026.5,045.4,0.452,734.7,01.18,0.508
2015-01-25 01:33:00,2166E-3,5C000000,-0724,0836,12197,026.4,045.4,0.451,734.7,01.18,0.508
2015-01-25 01:34:00,2156E-3,5C000000,-0724,0836,12179,026.5,045.4,0.452,734.7,01.18,0.508
2015-01-25 01:35:00,2114E-3,5C000000,-0724,0837,12221,026.4,045.4,0.452,734.6,01.18,0.508
2015-01-25 01:36:00,2053E-3,5C000000,-0724,0835,12177,026.4,045.4,0.452,734.5,01.18,0.508
2015-01-25 01:37:00,2088E-3,5C000000,-0724,0836,12151,026.4,045.4,0.452,734.3,01.18,0.508
2015-01-25 01:38:00,2139E-3,5C000000,-0724,0835,12128,026.4,045.4,0.451,734.3,01.18,0.508
2015-01-25 01:39:00,2130E-3,5C000000,-0724,0835,12156,026.4,045.4,0.452,734.8,01.18,0.508
2015-01-25 01:40:00,2108E-3,5C000000,-0724,0836,12262,026.4,045.4,0.452,734.3,01.18,0.508
2015-01-25 01:41:00,2198E-3,5C000000,-0724,0836,11978,026.3,045.4,0.452,734.9,01.18,0.508
2015-01-25 01:42:00,2124E-3,5C000000,-0724,0835,12189,026.3,045.4,0.452,734.6,01.18,0.508
2015-01-25 01:43:00,2086E-3,5C000000,-0724,0836,12306,026.3,045.4,0.452,734.7,01.18,0.508
2015-01-25 01:44:00,2194E-3,5C000000,-0724,0835,12230,026.3,045.4,0.452,734.5,01.18,0.508
2015-01-25 01:45:00,2049E-3,5C000000,-0724,0835,12141,026.2,045.4,0.452,734.4,01.18,0.508
2015-01-25 01:46:00,2169E-3,5C000000,-0724,0836,12135,026.2,045.4,0.452,734.8,01.18,0.508
2015-01-25 01:47:00,2057E-3,5C000000,-0724,0834,12119,026.2,045.4,0.452,734.7,01.18,0.508
2015-01-25 01:48:00,2089E-3,5C000000,-0724,0836,12199,026.2,045.4,0.452,734.8,01.18,0.508
2015-01-25 01:49:00,2152E-3,5C000000,-0724,0835,11991,026.2,045.4,0.452,734.9,01.18,0.508
2015-01-25 01:50:00,2146E-3,5C000000,-0724,0835,12119,026.1,045.4,0.452,734.8,01.18,0.508
2015-01-25 01:51:00,2202E-3,5C000000,-0724,0836,12232,026.1,045.4,0.453,734.7,01.18,0.508
2015-01-25 01:52:00,2137E-3,5C000000,-0724,0835,11980,026.1,045.4,0.452,734.7,01.18,0.508
2015-01-25 01:53:00,2118E-3,5C000000,-0724,0836,12085,026.1,045.4,0.452,734.9,01.18,0.508
2015-01-25 01:54:00,2187E-3,5C000000,-0724,0835,12117,026.1,045.4,0.453,734.9,01.18,0.508
2015-01-25 01:55:00,2146E-3,5C000000,-0724,0836,12016,026.0,045.4,0.452,734.9,01.18,0.508
2015-01-25 01:56:00,2147E-3,5C000000,-0724,0835,12212,026.0,045.4,0.453,735.2,01.18,0.508
2015-01-25 01:57:00,2119E-3,5C000000,-0724,0836,11982,026.0,045.4,0.452,734.8,01.18,0.508
2015-01-25 01:58:00,2124E-3,5C000000,-0724,0835,12179,026.0,045.4,0.453,735.0,01.18,0.508
2015-01-25 01:59:00,2131E-3,5C000000,-0724,0836,11945,026.0,045.4,0.452,735.1,01.18,0.508
2015-01-25 02:00:00,2083E-3,5C000000,-0724,0836,12057,025.9,045.4,0.453,735.1,01.18,0.508
2015-01-25 02:01:00,2021E-3,5C000000,-0724,0834,11974,026.0,045.4,0.452,735.0,01.18,0.508
2015-01-25 02:02:00,1940E-3,5C000000,-0724,0835,12191,025.9,045.4,0.453,735.2,01.18,0.508
2015-01-25 02:03:00,2110E-3,5C000000,-0724,0835,12074,025.9,045.4,0.452,735.3,01.18,0.508
2015-01-25 02:04:00,2239E-3,5C000000,-0724,0835,12228,025.9,045.4,0.453,735.2,01.18,0.508
2015-01-25 02:05:00,2184E-3,5C000000,-0724,0834,12098,025.9,045.4,0.453,734.9,01.18,0.508
2015-01-25 02:06:00,2194E-3,5C000000,-0724,0835,12199,025.9,045.4,0.453,735.4,01.18,0.508
2015-01-25 02:07:00,2078E-3,5C000000,-0724,0834,12232,025.9,045.4,0.453,735.3,01.18,0.508
2015-01-25 02:08:00,2112E-3,5C000000,-0724,0835,12105,025.9,045.4,0.453,735.1,01.18,0.508
2015-01-25 02:09:00,2114E-3,5C000000,-0724,0836,12107,025.8,045.4,0.453,735.1,01.18,0.508
2015-01-25 02:10:00,2015E-3,5C000000,-0724,0835,12044,025.9,045.4,0.453,735.3,01.18,0.508
2015-01-25 02:11:00,1964E-3,5C000000,-0724,0836,12052,025.9,045.4,0.453,735.2,01.18,0.508
2015-01-25 02:12:00,2107E-3,5C000000,-0724,0835,12258,025.9,045.4,0.453,735.1,01.18,0.508
2015-01-25 02:13:00,2256E-3,5C000000,-0724,0836,12082,025.8,045.4,0.453,735.2,01.18,0.508
2015-01-25 02:14:00,2151E-3,5C000000,-0724,0834,12252,025.8,045.4,0.453,735.1,01.18,0.508
2015-01-25 02:15:00,2143E-3,5C000000,-0724,0835,12229,025.8,045.4,0.453,735.4,01.18,0.508
2015-01-25 02:16:00,2056E-3,5C000000,-0724,0834,12044,025.8,045.4,0.453,735.5,01.18,0.508
2015-01-25 02:17:00,1967E-3,5C000000,-0724,0835,12183,025.8,045.4,0.453,735.6,01.18,0.508
2015-01-25 02:18:00,2086E-3,5C000000,-0724,0836,12221,025.8,045.4,0.453,735.5,01.18,0.508
2015-01-25 02:19:00,2069E-3,5C000000,-0724,0835,12110,025.8,045.4,0.453,735.7,01.18,0.508
2015-01-25 02:20:00,2131E-3,5C000000,-0724,0836,12114,025.8,045.4,0.453,735.6,01.18,0.508
2015-01-25 02:21:00,1924E-3,5C000000,-0724,0836,12175,025.8,045.4,0.453,735.7,01.18,0.508
2015-01-25 02:22:00,2004E-3,5C000000,-0724,0835,12200,025.8,045.4,0.453,735.6,01.18,0.508
2015-01-25 02:23:00,2228E-3,5C000000,-0724,0835,12182,025.8,045.4,0.453,735.6,01.18,0.508
2015-01-25 02:24:00,2171E-3,5C000000,-0724,0835,12136,025.8,045.4,0.453,735.6,01.18,0.508
2015-01-25 02:25:00,2113E-3,5C000000,-0724,0835,11957,025.8,045.4,0.453,735.7,01.18,0.508
2015-01-25 02:26:00,2178E-3,5C000000,-0724,0835,12201,025.8,045.4,0.453,735.7,01.18,0.508
2015-01-25 02:27:00,2100E-3,5C000000,-0724,0835,12132,025.8,045.4,0.453,735.6,01.18,0.508
2015-01-25 02:28:00,1941E-3,5C000000,-0724,0836,12102,025.8,045.4,0.453,735.7,01.18,0.508
2015-01-25 02:29:00,2007E-3,5C000000,-0724,0836,12056,025.8,045.4,0.453,735.7,01.18,0.508
2015-01-25 02:30:00,2027E-3,5C000000,-0724,0835,12286,025.8,045.4,0.453,735.8,01.18,0.508
2015-01-25 02:31:00,2153E-3,5C000000,-0724,0836,12069,025.8,045.4,0.453,735.7,01.18,0.508
2015-01-25 02:32:00,1998E-3,5C000000,-0724,0835,12224,025.8,045.4,0.453,735.6,01.18,0.508
2015-01-25 02:33:00,2086E-3,5C000000,-0724,0835,12147,025.8,045.4,0.453,735.6,01.18,0.508
2015-01-25 02:34:00,2027E-3,5C000000,-0724,0837,12209,025.8,045.4,0.453,735.7,01.18,0.508
2015-01-25 02:35:00,2157E-3,5C000000,-0724,0836,12226,025.8,045.4,0.453,735.7,01.18,0.508
2015-01-25 02:36:00,2168E-3,5C000000,-0724,0835,12154,025.9,045.4,0.453,735.6,01.18,0.508
2015-01-25 02:37:00,1980E-3,5C000000,-0724,0835,12212,025.8,045.4,0.453,735.5,01.18,0.508
2015-01-25 02:38:00,2043E-3,5C000000,-0724,0835,12062,025.8,045.4,0.453,735.5,01.18,0.508
2015-01-25 02:39:00,2086E-3,5C000000,-0724,0836,12170,025.9,045.4,0.453,735.6,01.18,0.508
2015-01-25 02:40:00,2045E-3,5C000000,-0724,0836,12171,025.9,045.4,0.453,735.5,01.18,0.508
2015-01-25 02:41:00,2053E-3,5C000000,-0724,0835,12046,025.9,045.4,0.453,735.6,01.18,0.508
2015-01-25 02:42:00,2109E-3,5C000000,-0724,0836,12066,025.9,045.4,0.453,735.4,01.18,0.508
2015-01-25 02:43:00,2030E-3,5C000000,-0724,0836,12046,025.9,045.4,0.453,735.6,01.18,0.508
2015-01-25 02:44:00,2050E-3,5C000000,-0724,0836,12116,025.9,045.4,0.453,735.4,01.18,0.508
2015-01-25 02:45:00,2144E-3,5C000000,-0724,0835,12145,025.9,045.4,0.453,735.5,01.18,0.508
2015-01-25 02:46:00,2041E-3,5C000000,-0724,0835,12166,025.9,045.4,0.453,735.5,01.18,0.508
2015-01-25 02:47:00,2087E-3,5C000000,-0724,0836,12126,025.9,045.4,0.453,735.6,01.18,0.508
2015-01-25 02:48:00,2081E-3,5C000000,-0724,0834,12089,025.9,045.4,0.453,735.6,01.18,0.508
2015-01-25 02:49:00,2165E-3,5C000000,-0724,0836,12159,025.9,045.4,0.453,735.6,01.18,0.508
2015-01-25 02:50:00,2145E-3,5C000000,-0724,0836,12094,025.9,045.4,0.453,735.5,01.18,0.508
2015-01-25 02:51:00,2172E-3,5C000000,-0724,0835,12207,025.9,045.4,0.453,735.5,01.18,0.508
2015-01-25 02:52:00,2096E-3,5C000000,-0724,0837,12151,025.9,045.4,0.453,735.6,01.18,0.508
2015-01-25 02:53:00,2120E-3,5C000000,-0724,0835,12176,025.9,045.4,0.453,735.5,01.18,0.508
2015-01-25 02:54:00,2031E-3,5C000000,-0724,0835,12154,025.9,045.4,0.453,735.6,01.18,0.508
2015-01-25 02:55:00,2139E-3,5C000000,-0724,0835,12276,025.9,045.4,0.453,735.7,01.18,0.508
2015-01-25 02:56:00,2138E-3,5C000000,-0724,0836,12053,025.9,045.4,0.453,735.7,01.18,0.508
2015-01-25 02:57:00,2087E-3,5C000000,-0724,0836,12178,025.9,045.4,0.453,735.8,01.18,0.508
2015-01-25 02:58:00,2092E-3,5C000000,-0724,0836,12091,026.0,045.4,0.453,735.7,01.18,0.508
2015-01-25 02:59:00,2137E-3,5C000000,-0724,0835,12185,026.0,045.4,0.453,735.8,01.18,0.508
2015-01-25 03:00:00,2093E-3,5C000000,-0724,0835,12019,025.9,045.4,0.453,735.8,01.18,0.508
2015-01-25 03:01:00,2217E-3,5C000000,-0724,0835,12082,026.0,045.4,0.453,735.7,01.18,0.508
2015-01-25 03:02:00,2198E-3,5C000000,-0724,0835,12120,026.0,045.4,0.453,735.9,01.18,0.508
2015-01-25 03:03:00,2073E-3,5C000000,-0724,0835,12027,026.0,045.4,0.453,735.8,01.18,0.508
2015-01-25 03:04:00,2112E-3,5C000000,-0724,0836,12134,026.0,045.4,0.453,735.9,01.18,0.508
2015-01-25 03:05:00,2176E-3,5C000000,-0724,0836,12188,026.0,045.4,0.453,735.9,01.18,0.508
2015-01-25 03:06:00,2087E-3,5C000000,-0724,0836,12182,026.0,045.4,0.453,735.9,01.18,0.508
2015-01-25 03:07:00,1960E-3,5C000000,-0724,0836,12098,026.0,045.4,0.453,735.7,01.18,0.508
2015-01-25 03:08:00,2132E-3,5C000000,-0724,0834,12174,026.0,045.4,0.453,735.7,01.18,0.508
2015-01-25 03:09:00,2120E-3,5C000000,-0724,0836,11938,026.0,045.4,0.453,735.7,01.18,0.508
2015-01-25 03:10:00,2119E-3,5C000000,-0724,0835,11985,026.0,045.4,0.453,735.8,01.18,0.508
2015-01-25 03:11:00,2092E-3,5C000000,-0724,0835,12105,026.0,045.4,0.453,735.8,01.18,0.508
2015-01-25 03:12:00,2028E-3,5C000000,-0724,0835,12179,026.0,045.4,0.453,735.7,01.18,0.508
2015-01-25 03:13:00,2077E-3,5C000000,-0724,0836,12004,026.0,045.4,0.453,735.8,01.18,0.508
2015-01-25 03:14:00,2111E-3,5C000000,-0724,0836,12221,026.0,045.4,0.453,735.8,01.18,0.508
2015-01-25 03:15:00,2059E-3,5C000000,-0724,0835,12100,026.0,045.4,0.453,735.8,01.18,0.508
2015-01-25 03:16:00,2080E-3,5C000000,-0724,0835,12167,026.0,045.4,0.453,735.5,01.18,0.508
2015-01-25 03:17:00,2243E-3,5C000000,-0724,0836,12018,026.0,045.4,0.453,735.6,01.18,0.508
2015-01-25 03:18:00,2127E-3,5C000000,-0724,0836,12161,026.0,045.4,0.453,735.7,01.18,0.508
2015-01-25 03:19:00,2064E-3,5C000000,-0724,0836,12065,026.0,045.4,0.453,735.7,01.18,0.508
2015-01-25 03:20:00,2182E-3,5C000000,-0724,0836,12110,026.0,045.4,0.453,735.6,01.18,0.508
2015-01-25 03:21:00,2068E-3,5C000000,-0724,0836,12110,026.0,045.4,0.453,735.6,01.18,0.508
2015-01-25 03:22:00,2057E-3,5C000000,-0724,0836,12161,026.0,045.4,0.453,735.6,01.18,0.508
2015-01-25 03:23:00,2156E-3,5C000000,-0724,0836,12133,026.0,045.4,0.453,735.5,01.18,0.508
2015-01-25 03:24:00,2088E-3,5C000000,-0724,0835,12164,026.0,045.4,0.453,735.7,01.18,0.508
2015-01-25 03:25:00,2195E-3,5C000000,-0724,0835,12276,026.0,045.4,0.453,735.6,01.18,0.508
2015-01-25 03:26:00,2062E-3,5C000000,-0724,0835,12118,026.0,045.4,0.453,735.8,01.18,0.508
2015-01-25 03:27:00,2040E-3,5C000000,-0724,0835,12277,026.0,045.4,0.453,735.8,01.18,0.508
2015-01-25 03:28:00,2177E-3,5C000000,-0724,0835,12094,026.0,045.4,0.453,735.8,01.18,0.508
2015-01-25 03:29:00,2114E-3,5C000000,-0724,0835,12185,026.0,045.4,0.453,735.8,01.18,0.508
2015-01-25 03:30:00,2262E-3,5C000000,-0724,0835,12096,026.0,045.4,0.453,735.7,01.18,0.508
2015-01-25 03:31:00,2044E-3,5C000000,-0724,0835,12149,026.0,045.4,0.453,735.8,01.18,0.508
2015-01-25 03:32:00,2085E-3,5C000000,-0724,0835,12042,026.0,045.4,0.453,735.8,01.18,0.508
2015-01-25 03:33:00,1956E-3,5C000000,-0724,0835,12203,026.0,045.4,0.453,735.8,01.18,0.508
2015-01-25 03:34:00,2108E-3,5C000000,-0724,0835,12204,026.0,045.4,0.453,735.7,01.18,0.508
2015-01-25 03:35:00,2171E-3,5C000000,-0724,0835,12026,026.0,045.4,0.453,735.7,01.18,0.508
2015-01-25 03:36:00,2048E-3,5C000000,-0724,0836,12105,026.0,045.4,0.453,735.7,01.18,0.508
2015-01-25 03:37:00,2117E-3,5C000000,-0724,0836,12077,026.0,045.4,0.453,735.7,01.18,0.508
2015-01-25 03:38:00,2101E-3,5C000000,-0724,0836,12346,026.0,045.4,0.453,735.9,01.18,0.508
2015-01-25 03:39:00,2089E-3,5C000000,-0724,0836,12078,026.0,045.4,0.453,735.7,01.18,0.508
2015-01-25 03:40:00,2053E-3,5C000000,-0724,0835,12226,026.0,045.4,0.453,735.8,01.18,0.508
2015-01-25 03:41:00,2119E-3,5C000000,-0724,0836,12173,026.0,045.4,0.453,735.7,01.18,0.508
2015-01-25 03:42:00,2157E-3,5C000000,-0724,0835,12143,026.0,045.3,0.453,735.8,01.18,0.508
2015-01-25 03:43:00,2176E-3,5C000000,-0724,0836,12044,026.0,045.4,0.453,735.7,01.18,0.508
2015-01-25 03:44:00,2078E-3,5C000000,-0724,0835,12034,025.9,045.4,0.453,735.6,01.18,0.508
2015-01-25 03:45:00,2212E-3,5C000000,-0724,0835,12163,025.9,045.4,0.453,735.7,01.18,0.508
2015-01-25 03:46:00,2097E-3,5C000000,-0724,0836,12220,026.0,045.4,0.453,735.6,01.18,0.508
2015-01-25 03:47:00,2091E-3,5C000000,-0724,0836,11973,025.9,045.4,0.453,735.5,01.18,0.508
2015-01-25 03:48:00,2239E-3,5C000000,-0724,0836,12257,025.9,045.4,0.453,735.6,01.18,0.508
2015-01-25 03:49:00,2140E-3,5C000000,-0724,0835,12181,025.9,045.4,0.453,735.7,01.18,0.508
2015-01-25 03:50:00,2043E-3,5C000000,-0724,0835,12076,025.9,045.4,0.454,735.7,01.18,0.508
2015-01-25 03:51:00,2072E-3,5C000000,-0724,0836,12237,025.9,045.4,0.453,735.6,01.18,0.508
2015-01-25 03:52:00,2077E-3,5C000000,-0724,0835,12051,025.9,045.4,0.454,735.7,01.18,0.508
2015-01-25 03:53:00,2165E-3,5C000000,-0724,0836,12217,025.9,045.4,0.453,735.6,01.18,0.508
2015-01-25 03:54:00,1944E-3,5C000000,-0724,0835,12255,025.9,045.4,0.454,735.7,01.18,0.508
2015-01-25 03:55:00,2107E-3,5C000000,-0724,0836,12142,025.9,045.4,0.453,735.6,01.18,0.508
2015-01-25 03:56:00,2078E-3,5C000000,-0724,0835,12195,025.9,045.4,0.454,735.6,01.18,0.508
2015-01-25 03:57:00,2218E-3,5C000000,-0724,0835,12252,025.9,045.4,0.453,735.5,01.18,0.508
2015-01-25 03:58:00,2214E-3,5C000000,-0724,0835,11986,025.9,045.4,0.454,735.8,01.18,0.508
2015-01-25 03:59:00,2178E-3,5C000000,-0724,0835,12210,025.9,045.4,0.453,735.8,01.18,0.508
2015-01-25 04:00:00,2012E-3,5C000000,-0724,0836,12163,025.9,045.4,0.454,735.8,01.18,0.508
2015-01-25 04:01:00,2146E-3,5C000000,-0724,0835,12257,025.9,045.4,0.453,736.0,01.18,0.508
2015-01-25 04:02:00,2089E-3,5C000000,-0724,0835,12204,025.9,045.4,0.454,735.9,01.18,0.508
2015-01-25 04:03:00,2030E-3,5C000000,-0724,0835,12097,025.9,045.4,0.453,735.9,01.18,0.508
2015-01-25 04:04:00,2052E-3,5C000000,-0724,0836,12383,025.9,045.4,0.454,736.0,01.18,0.508
2015-01-25 04:05:00,2117E-3,5C000000,-0724,0836,12103,025.9,045.4,0.453,735.9,01.18,0.508
2015-01-25 04:06:00,2152E-3,5C000000,-0724,0837,12158,025.9,045.4,0.454,735.7,01.18,0.508
2015-01-25 04:07:00,2127E-3,5C000000,-0724,0836,12226,025.9,045.4,0.453,735.6,01.18,0.508
2015-01-25 04:08:00,2126E-3,5C000000,-0724,0835,12056,025.9,045.4,0.454,735.8,01.18,0.508
2015-01-25 04:09:00,2161E-3,5C000000,-0724,0836,12118,025.9,045.4,0.453,735.6,01.18,0.508
2015-01-25 04:10:00,2092E-3,5C000000,-0724,0836,12142,025.8,045.4,0.454,735.6,01.18,0.508
2015-01-25 04:11:00,2107E-3,5C000000,-0724,0836,12101,025.9,045.4,0.453,735.6,01.18,0.508
2015-01-25 04:12:00,2092E-3,5C000000,-0724,0836,12113,025.9,045.4,0.454,735.8,01.18,0.508
2015-01-25 04:13:00,2212E-3,5C000000,-0724,0835,12056,025.9,045.4,0.453,735.8,01.18,0.508
2015-01-25 04:14:00,2063E-3,5C000000,-0724,0835,12024,025.9,045.4,0.454,735.8,01.18,0.508
2015-01-25 04:15:00,2027E-3,5C000000,-0724,0835,12195,025.8,045.4,0.453,735.8,01.18,0.508
2015-01-25 04:16:00,2024E-3,5C000000,-0724,0834,12030,025.8,045.4,0.454,735.8,01.18,0.508
2015-01-25 04:17:00,2158E-3,5C000000,-0724,0836,12289,025.8,045.4,0.453,735.6,01.18,0.508
2015-01-25 04:18:00,2189E-3,5C000000,-0724,0835,12276,025.8,045.4,0.454,735.8,01.18,0.508
2015-01-25 04:19:00,2199E-3,5C000000,-0724,0836,12157,025.8,045.4,0.454,735.7,01.18,0.508
2015-01-25 04:20:00,2058E-3,5C000000,-0724,0836,12341,025.8,045.4,0.454,735.8,01.18,0.508